| time (UTC) | temp F | wind direction | speed MPH | gust MPH | rain 1hr in | rain 24hr in | rain mn in | humidity % | barometer mb |
| 20260901224555 | 90 | 183 | 1.0 | 10.0 | 0.00 | 0.00 | 0.00 | 21 | 1014.7 |
| 20260901224517 | 90 | 186 | 2.0 | 10.0 | 0.00 | 0.00 | 0.00 | 22 | 1010.8 |
| 20260901223059 | 91 | 190 | 2.0 | 9.0 | 0.00 | 0.00 | 0.00 | 23 | 1014.8 |
| 20260901223034 | 91 | 189 | 2.0 | 9.0 | 0.00 | 0.00 | 0.00 | 24 | 1010.9 |
| 20260901221618 | 91 | 221 | 2.0 | 8.0 | 0.00 | 0.00 | 0.00 | 24 | 1015.1 |
| 20260901221513 | 91 | 200 | 2.0 | 7.0 | 0.00 | 0.00 | 0.00 | 24 | 1011.1 |
| 20260901220116 | 91 | 213 | 1.0 | 7.0 | 0.00 | 0.00 | 0.00 | 24 | 1015.1 |
| 20260901220011 | 91 | 212 | 2.0 | 6.0 | 0.00 | 0.00 | 0.00 | 24 | 1011.1 |
| 20260901214557 | 92 | 223 | 2.0 | 8.0 | 0.00 | 0.00 | 0.00 | 24 | 1015.2 |
| 20260901214513 | 92 | 222 | 2.0 | 7.0 | 0.00 | 0.00 | 0.00 | 25 | 1011.1 |
| 20260901213052 | 92 | 234 | 1.0 | 8.0 | 0.00 | 0.00 | 0.00 | 25 | 1015.4 |
| 20260901213010 | 92 | 225 | 2.0 | 7.0 | 0.00 | 0.00 | 0.00 | 26 | 1011.2 |
| 20260901211557 | 91 | 216 | 3.0 | 7.0 | 0.00 | 0.00 | 0.00 | 26 | 1015.4 |
| 20260901211521 | 91 | 153 | 3.0 | 6.0 | 0.00 | 0.00 | 0.00 | 26 | 1011.3 |
| 20260901210057 | 92 | 215 | 1.0 | 9.0 | 0.00 | 0.00 | 0.00 | 24 | 1015.4 |
| 20260901210008 | 92 | 210 | 1.0 | 8.0 | 0.00 | 0.00 | 0.00 | 25 | 1011.3 |
| 20260901204555 | 92 | 0 | 1.0 | 5.0 | 0.00 | 0.00 | 0.00 | 23 | 1015.3 |
| 20260901204510 | 92 | 173 | 2.0 | 5.0 | 0.00 | 0.00 | 0.00 | 23 | 1011.6 |
| 20260901203056 | 92 | 217 | 1.0 | 4.0 | 0.00 | 0.00 | 0.00 | 24 | 1015.5 |
| 20260901203005 | 92 | 217 | 1.0 | 4.0 | 0.00 | 0.00 | 0.00 | 24 | 1011.7 |
| 20260901201600 | 91 | 210 | 1.0 | 7.0 | 0.00 | 0.00 | 0.00 | 22 | 1015.7 |
| 20260901201504 | 91 | 219 | 2.0 | 6.0 | 0.00 | 0.00 | 0.00 | 23 | 1011.8 |
| 20260901200056 | 92 | 226 | 1.0 | 8.0 | 0.00 | 0.00 | 0.00 | 22 | 1015.9 |
| 20260901200009 | 92 | 226 | 2.0 | 8.0 | 0.00 | 0.00 | 0.00 | 22 | 1012.1 |
| 20260901194557 | 91 | 0 | 1.0 | 7.0 | 0.00 | 0.00 | 0.00 | 21 | 1016.1 |
| 20260901194502 | 91 | 107 | 1.0 | 5.0 | 0.00 | 0.00 | 0.00 | 21 | 1012.3 |
| 20260901193116 | 91 | 182 | 0.0 | 2.0 | 0.00 | 0.00 | 0.00 | 23 | 1012.4 |
| 20260901193052 | 91 | 0 | 0.0 | 3.0 | 0.00 | 0.00 | 0.00 | 24 | 1016.3 |
| 20260901191610 | 91 | 0 | 0.0 | 4.0 | 0.00 | 0.00 | 0.00 | 22 | 1016.3 |
| 20260901191558 | 91 | 182 | 0.0 | 3.0 | 0.00 | 0.00 | 0.00 | 23 | 1012.5 |
| 20260901190055 | 89 | 0 | 0.0 | 4.0 | 0.00 | 0.00 | 0.00 | 24 | 1016.5 |
| 20260901184553 | 89 | 0 | 1.0 | 8.0 | 0.00 | 0.00 | 0.00 | 23 | 1016.7 |
| 20260901184550 | 89 | 180 | 0.0 | 7.0 | 0.00 | 0.00 | 0.00 | 24 | 1012.8 |
| 20260901183102 | 88 | 0 | 0.0 | 3.0 | 0.00 | 0.00 | 0.00 | 26 | 1016.8 |
| 20260901183047 | 88 | 234 | 0.0 | 3.0 | 0.00 | 0.00 | 0.00 | 26 | 1012.8 |
| 20260901181605 | 87 | 0 | 0.0 | 3.0 | 0.00 | 0.00 | 0.00 | 30 | 1016.8 |
| 20260901181543 | 87 | 234 | 0.0 | 3.0 | 0.00 | 0.00 | 0.00 | 31 | 1012.9 |
| 20260901180055 | 86 | 0 | 0.0 | 2.0 | 0.00 | 0.00 | 0.00 | 31 | 1016.9 |
| 20260901180038 | 86 | 232 | 0.0 | 2.0 | 0.00 | 0.00 | 0.00 | 32 | 1013.0 |
| 20260901174552 | 84 | 0 | 0.0 | 3.0 | 0.00 | 0.00 | 0.00 | 34 | 1017.0 |
| 20260901174542 | 84 | 232 | 0.0 | 3.0 | 0.00 | 0.00 | 0.00 | 37 | 1013.0 |
| 20260901173103 | 83 | 0 | 0.0 | 3.0 | 0.00 | 0.00 | 0.00 | 39 | 1016.8 |
| 20260901173029 | 83 | 232 | 0.0 | 3.0 | 0.00 | 0.00 | 0.00 | 39 | 1012.9 |
| 20260901171602 | 81 | 0 | 0.0 | 2.0 | 0.00 | 0.00 | 0.00 | 41 | 1016.8 |
| 20260901171525 | 81 | 232 | 0.0 | 2.0 | 0.00 | 0.00 | 0.00 | 41 | 1012.9 |
| 20260901170100 | 80 | 0 | 0.0 | 1.0 | 0.00 | 0.00 | 0.00 | 43 | 1016.9 |
| 20260901170030 | 80 | 232 | 0.0 | 1.0 | 0.00 | 0.00 | 0.00 | 43 | 1012.9 |
| 20260901164556 | 78 | 0 | 0.0 | 0.0 | 0.00 | 0.00 | 0.00 | 44 | 1016.7 |
| 20260901164518 | 78 | 232 | 0.0 | 0.0 | 0.00 | 0.00 | 0.00 | 45 | 1012.9 |
| 20260901163107 | 76 | 0 | 0.0 | 0.0 | 0.00 | 0.00 | 0.00 | 47 | 1016.8 |
| 20260901163019 | 76 | 232 | 0.0 | 0.0 | 0.00 | 0.00 | 0.00 | 48 | 1012.8 |
| 20260901161611 | 73 | 0 | 0.0 | 0.0 | 0.00 | 0.00 | 0.00 | 57 | 1016.7 |
| 20260901161509 | 73 | 231 | 0.0 | 0.0 | 0.00 | 0.00 | 0.00 | 58 | 1012.8 |
| 20260901160113 | 70 | 0 | 0.0 | 0.0 | 0.00 | 0.00 | 0.00 | 65 | 1016.6 |
| 20260901160005 | 70 | 232 | 0.0 | 0.0 | 0.00 | 0.00 | 0.00 | 66 | 1012.8 |
| 20260901154608 | 67 | 232 | 0.0 | 0.0 | 0.00 | 0.00 | 0.00 | 75 | 1012.7 |
| 20260901154605 | 66 | 0 | 0.0 | 0.0 | 0.00 | 0.00 | 0.00 | 75 | 1016.5 |
| 20260901153123 | 64 | 232 | 0.0 | 0.0 | 0.00 | 0.00 | 0.00 | 82 | 1012.8 |
| 20260901153105 | 63 | 0 | 0.0 | 0.0 | 0.00 | 0.00 | 0.00 | 82 | 1016.5 |
| 20260901151611 | 61 | 0 | 0.0 | 0.0 | 0.00 | 0.00 | 0.00 | 85 | 1016.5 |
| 20260901151558 | 61 | 232 | 0.0 | 0.0 | 0.00 | 0.00 | 0.00 | 85 | 1012.5 |
| 20260901150058 | 59 | 0 | 0.0 | 0.0 | 0.00 | 0.00 | 0.00 | 85 | 1016.6 |
| 20260901150054 | 59 | 232 | 0.0 | 0.0 | 0.00 | 0.00 | 0.00 | 86 | 1012.4 |
| 20260901144559 | 58 | 0 | 0.0 | 0.0 | 0.00 | 0.00 | 0.00 | 86 | 1016.5 |
| 20260901144553 | 58 | 232 | 0.0 | 0.0 | 0.00 | 0.00 | 0.00 | 86 | 1012.4 |
| 20260901143105 | 57 | 0 | 0.0 | 0.0 | 0.00 | 0.00 | 0.00 | 83 | 1016.4 |
| 20260901143050 | 57 | 232 | 0.0 | 0.0 | 0.00 | 0.00 | 0.00 | 83 | 1012.4 |
| 20260901141559 | 56 | 0 | 0.0 | 0.0 | 0.00 | 0.00 | 0.00 | 81 | 1016.3 |
| 20260901141548 | 56 | 232 | 0.0 | 0.0 | 0.00 | 0.00 | 0.00 | 81 | 1012.3 |
| 20260901140058 | 56 | 0 | 0.0 | 0.0 | 0.00 | 0.00 | 0.00 | 79 | 1016.2 |
| 20260901140046 | 56 | 232 | 0.0 | 0.0 | 0.00 | 0.00 | 0.00 | 80 | 1012.2 |
| 20260901134558 | 56 | 0 | 0.0 | 0.0 | 0.00 | 0.00 | 0.00 | 78 | 1015.9 |
| 20260901134544 | 56 | 232 | 0.0 | 0.0 | 0.00 | 0.00 | 0.00 | 78 | 1011.8 |
| 20260901133057 | 56 | 0 | 0.0 | 0.0 | 0.00 | 0.00 | 0.00 | 78 | 1015.7 |
| 20260901133043 | 56 | 232 | 0.0 | 0.0 | 0.00 | 0.00 | 0.00 | 78 | 1011.7 |
| 20260901131601 | 56 | 0 | 0.0 | 0.0 | 0.00 | 0.00 | 0.00 | 77 | 1015.5 |
| 20260901131543 | 56 | 232 | 0.0 | 0.0 | 0.00 | 0.00 | 0.00 | 78 | 1011.5 |
| 20260901130054 | 57 | 232 | 0.0 | 0.0 | 0.00 | 0.00 | 0.00 | 77 | 1011.3 |
| 20260901124556 | 57 | 0 | 0.0 | 0.0 | 0.00 | 0.00 | 0.00 | 76 | 1015.4 |
| 20260901124538 | 57 | 155 | 0.0 | 0.0 | 0.00 | 0.00 | 0.00 | 77 | 1011.2 |
| 20260901123055 | 57 | 0 | 0.0 | 0.0 | 0.00 | 0.00 | 0.00 | 76 | 1015.4 |
| 20260901123042 | 57 | 155 | 0.0 | 0.0 | 0.00 | 0.00 | 0.00 | 77 | 1011.4 |
| 20260901121559 | 57 | 0 | 0.0 | 0.0 | 0.00 | 0.00 | 0.00 | 76 | 1015.4 |
| 20260901121538 | 57 | 155 | 0.0 | 0.0 | 0.00 | 0.00 | 0.00 | 76 | 1011.5 |
| 20260901120054 | 58 | 0 | 0.0 | 0.0 | 0.00 | 0.00 | 0.00 | 75 | 1015.5 |
| 20260901120034 | 58 | 155 | 0.0 | 0.0 | 0.00 | 0.00 | 0.00 | 76 | 1011.5 |
| 20260901114643 | 58 | 0 | 0.0 | 0.0 | 0.00 | 0.00 | 0.00 | 74 | 1015.4 |
| 20260901114531 | 58 | 155 | 0.0 | 0.0 | 0.00 | 0.00 | 0.00 | 75 | 1011.6 |
| 20260901113101 | 58 | 0 | 0.0 | 0.0 | 0.00 | 0.00 | 0.00 | 74 | 1015.7 |
| 20260901113030 | 58 | 155 | 0.0 | 0.0 | 0.00 | 0.00 | 0.00 | 74 | 1011.6 |
| 20260901111558 | 58 | 0 | 0.0 | 0.0 | 0.00 | 0.00 | 0.00 | 73 | 1015.7 |
| 20260901111529 | 58 | 155 | 0.0 | 0.0 | 0.00 | 0.00 | 0.00 | 73 | 1011.7 |
| 20260901110058 | 59 | 0 | 0.0 | 0.0 | 0.00 | 0.00 | 0.00 | 73 | 1016.0 |
| 20260901110027 | 59 | 155 | 0.0 | 0.0 | 0.00 | 0.00 | 0.00 | 73 | 1011.8 |
| 20260901104603 | 59 | 0 | 0.0 | 0.0 | 0.00 | 0.00 | 0.00 | 72 | 1015.9 |
| 20260901104529 | 59 | 155 | 0.0 | 0.0 | 0.00 | 0.00 | 0.00 | 72 | 1011.7 |
| 20260901103059 | 59 | 0 | 0.0 | 0.0 | 0.00 | 0.00 | 0.00 | 72 | 1015.7 |
| 20260901103022 | 59 | 155 | 0.0 | 0.0 | 0.00 | 0.00 | 0.00 | 72 | 1011.6 |
| 20260901101601 | 60 | 0 | 0.0 | 0.0 | 0.00 | 0.00 | 0.00 | 72 | 1015.8 |
| 20260901101520 | 60 | 155 | 0.0 | 0.0 | 0.00 | 0.00 | 0.00 | 73 | 1011.6 |
| 20260901100024 | 60 | 155 | 0.0 | 0.0 | 0.00 | 0.00 | 0.00 | 72 | 1011.6 |
| 20260901094558 | 61 | 0 | 0.0 | 0.0 | 0.00 | 0.00 | 0.00 | 71 | 1015.7 |
| 20260901094516 | 61 | 155 | 0.0 | 0.0 | 0.00 | 0.00 | 0.00 | 72 | 1011.5 |
| 20260901093104 | 61 | 0 | 0.0 | 0.0 | 0.00 | 0.00 | 0.00 | 70 | 1015.6 |
| 20260901093014 | 61 | 155 | 0.0 | 0.0 | 0.00 | 0.00 | 0.00 | 71 | 1011.3 |
| 20260901091612 | 61 | 0 | 0.0 | 0.0 | 0.00 | 0.00 | 0.00 | 70 | 1015.6 |
| 20260901091513 | 61 | 155 | 0.0 | 0.0 | 0.00 | 0.00 | 0.00 | 70 | 1011.3 |
| 20260901090056 | 62 | 0 | 0.0 | 0.0 | 0.00 | 0.00 | 0.00 | 69 | 1015.6 |
| 20260901090015 | 62 | 155 | 0.0 | 0.0 | 0.00 | 0.00 | 0.00 | 69 | 1011.4 |
| 20260901084558 | 62 | 0 | 0.0 | 0.0 | 0.00 | 0.00 | 0.00 | 68 | 1015.7 |
| 20260901084510 | 62 | 155 | 0.0 | 0.0 | 0.00 | 0.00 | 0.00 | 69 | 1011.5 |
| 20260901083059 | 62 | 0 | 0.0 | 0.0 | 0.00 | 0.00 | 0.00 | 68 | 1015.8 |
| 20260901083023 | 62 | 155 | 0.0 | 0.0 | 0.00 | 0.00 | 0.00 | 68 | 1011.5 |
| 20260901081556 | 63 | 0 | 0.0 | 0.0 | 0.00 | 0.00 | 0.00 | 67 | 1015.8 |
| 20260901081506 | 63 | 155 | 0.0 | 0.0 | 0.00 | 0.00 | 0.00 | 68 | 1011.6 |
| 20260901080108 | 63 | 0 | 0.0 | 0.0 | 0.00 | 0.00 | 0.00 | 67 | 1015.9 |
| 20260901080004 | 64 | 155 | 0.0 | 0.0 | 0.00 | 0.00 | 0.00 | 67 | 1011.7 |
| 20260901074603 | 64 | 0 | 0.0 | 0.0 | 0.00 | 0.00 | 0.00 | 67 | 1016.0 |
| 20260901074506 | 64 | 155 | 0.0 | 0.0 | 0.00 | 0.00 | 0.00 | 68 | 1011.7 |
| 20260901073104 | 65 | 0 | 0.0 | 0.0 | 0.00 | 0.00 | 0.00 | 68 | 1016.0 |
| 20260901073059 | 65 | 155 | 0.0 | 0.0 | 0.00 | 0.00 | 0.00 | 68 | 1011.6 |
| 20260901071606 | 65 | 0 | 0.0 | 0.0 | 0.00 | 0.00 | 0.00 | 67 | 1015.9 |
| 20260901071557 | 65 | 155 | 0.0 | 0.0 | 0.00 | 0.00 | 0.00 | 68 | 1011.5 |
| 20260901070107 | 66 | 0 | 0.0 | 0.0 | 0.00 | 0.00 | 0.00 | 68 | 1015.9 |
| 20260901070055 | 66 | 155 | 0.0 | 0.0 | 0.00 | 0.00 | 0.00 | 68 | 1011.5 |
| 20260901064601 | 66 | 0 | 0.0 | 0.0 | 0.00 | 0.00 | 0.00 | 67 | 1015.7 |
| 20260901064558 | 66 | 155 | 0.0 | 0.0 | 0.00 | 0.00 | 0.00 | 67 | 1011.5 |
| 20260901063058 | 67 | 0 | 0.0 | 0.0 | 0.00 | 0.00 | 0.00 | 66 | 1015.7 |
| 20260901063055 | 67 | 155 | 0.0 | 0.0 | 0.00 | 0.00 | 0.00 | 67 | 1011.3 |
| 20260901061559 | 67 | 0 | 0.0 | 0.0 | 0.00 | 0.00 | 0.00 | 67 | 1015.6 |
| 20260901061556 | 67 | 155 | 0.0 | 0.0 | 0.00 | 0.00 | 0.00 | 67 | 1011.3 |
| 20260901060057 | 67 | 0 | 0.0 | 1.0 | 0.00 | 0.00 | 0.00 | 66 | 1015.7 |
| 20260901060053 | 67 | 155 | 0.0 | 1.0 | 0.00 | 0.00 | 0.00 | 67 | 1011.4 |
| 20260901054553 | 68 | 155 | 0.0 | 0.0 | 0.00 | 0.00 | 0.00 | 66 | 1011.3 |
| 20260901053118 | 68 | 155 | 0.0 | 1.0 | 0.00 | 0.00 | 0.00 | 65 | 1011.4 |
| 20260901053057 | 68 | 0 | 0.0 | 1.0 | 0.00 | 0.00 | 0.00 | 65 | 1015.7 |
| 20260901051556 | 69 | 0 | 0.0 | 0.0 | 0.00 | 0.00 | 0.00 | 63 | 1015.7 |
| 20260901051551 | 69 | 155 | 0.0 | 0.0 | 0.00 | 0.00 | 0.00 | 64 | 1011.3 |
| 20260901050104 | 69 | 0 | 0.0 | 0.0 | 0.00 | 0.00 | 0.00 | 62 | 1015.7 |
| 20260901050056 | 69 | 155 | 0.0 | 0.0 | 0.00 | 0.00 | 0.00 | 63 | 1011.3 |
| 20260901044601 | 70 | 0 | 0.0 | 3.0 | 0.00 | 0.00 | 0.00 | 62 | 1015.7 |
| 20260901044551 | 70 | 155 | 0.0 | 3.0 | 0.00 | 0.00 | 0.00 | 62 | 1011.2 |
| 20260901043059 | 71 | 0 | 0.0 | 1.0 | 0.00 | 0.00 | 0.00 | 60 | 1015.6 |
| 20260901043050 | 71 | 155 | 0.0 | 1.0 | 0.00 | 0.00 | 0.00 | 60 | 1011.1 |
| 20260901041604 | 71 | 0 | 0.0 | 2.0 | 0.00 | 0.00 | 0.00 | 59 | 1015.5 |
| 20260901041549 | 71 | 155 | 0.0 | 2.0 | 0.00 | 0.00 | 0.00 | 60 | 1010.9 |
| 20260901040054 | 72 | 0 | 0.0 | 2.0 | 0.00 | 0.00 | 0.00 | 58 | 1015.2 |
| 20260901040048 | 72 | 155 | 0.0 | 2.0 | 0.00 | 0.00 | 0.00 | 59 | 1010.5 |
| 20260901034602 | 73 | 0 | 0.0 | 1.0 | 0.00 | 0.00 | 0.00 | 56 | 1014.9 |
| 20260901034550 | 73 | 155 | 0.0 | 1.0 | 0.00 | 0.00 | 0.00 | 57 | 1010.4 |
| 20260901033116 | 73 | 0 | 0.0 | 3.0 | 0.00 | 0.00 | 0.00 | 54 | 1014.7 |
| 20260901033054 | 73 | 155 | 0.0 | 3.0 | 0.00 | 0.00 | 0.00 | 55 | 1010.2 |
| 20260901031605 | 74 | 167 | 0.0 | 5.0 | 0.00 | 0.00 | 0.00 | 54 | 1009.9 |
| 20260901031556 | 74 | 167 | 1.0 | 6.0 | 0.00 | 0.00 | 0.00 | 54 | 1014.4 |
| 20260901030058 | 75 | 178 | 0.0 | 5.0 | 0.00 | 0.00 | 0.00 | 49 | 1014.2 |
| 20260901030046 | 75 | 178 | 0.0 | 5.0 | 0.00 | 0.00 | 0.00 | 50 | 1009.8 |
| 20260901024600 | 76 | 0 | 1.0 | 7.0 | 0.00 | 0.00 | 0.00 | 46 | 1014.0 |
| 20260901024548 | 76 | 183 | 1.0 | 6.0 | 0.00 | 0.00 | 0.00 | 46 | 1009.4 |
| 20260901023058 | 77 | 159 | 1.0 | 6.0 | 0.00 | 0.00 | 0.00 | 42 | 1013.8 |
| 20260901023045 | 77 | 159 | 2.0 | 5.0 | 0.00 | 0.00 | 0.00 | 43 | 1009.2 |
| 20260901021603 | 78 | 0 | 1.0 | 7.0 | 0.00 | 0.00 | 0.00 | 38 | 1013.6 |
| 20260901021545 | 78 | 234 | 2.0 | 7.0 | 0.00 | 0.00 | 0.00 | 38 | 1009.2 |
| 20260901020053 | 80 | 0 | 1.0 | 6.0 | 0.00 | 0.00 | 0.00 | 36 | 1013.5 |
| 20260901020044 | 80 | 151 | 1.0 | 4.0 | 0.00 | 0.00 | 0.00 | 37 | 1009.1 |
| 20260901014601 | 81 | 148 | 1.0 | 6.0 | 0.00 | 0.00 | 0.00 | 36 | 1013.4 |
| 20260901014548 | 81 | 148 | 1.0 | 6.0 | 0.00 | 0.00 | 0.00 | 37 | 1008.8 |
| 20260901013112 | 82 | 202 | 1.0 | 6.0 | 0.00 | 0.00 | 0.00 | 34 | 1013.6 |
| 20260901013049 | 82 | 202 | 1.0 | 5.0 | 0.00 | 0.00 | 0.00 | 34 | 1009.0 |
| 20260901011612 | 83 | 131 | 1.0 | 5.0 | 0.00 | 0.00 | 0.00 | 31 | 1013.9 |
| 20260901011542 | 83 | 131 | 1.0 | 5.0 | 0.00 | 0.00 | 0.00 | 32 | 1009.2 |
| 20260901010111 | 84 | 165 | 3.0 | 8.0 | 0.00 | 0.00 | 0.00 | 32 | 1013.9 |
| 20260901010041 | 84 | 165 | 2.0 | 8.0 | 0.00 | 0.00 | 0.00 | 33 | 1009.2 |
| 20260901004600 | 85 | 149 | 2.0 | 7.0 | 0.00 | 0.00 | 0.00 | 29 | 1013.6 |
| 20260901004540 | 85 | 146 | 3.0 | 9.0 | 0.00 | 0.00 | 0.00 | 30 | 1008.9 |
| 20260901003059 | 85 | 201 | 1.0 | 10.0 | 0.00 | 0.00 | 0.00 | 28 | 1013.5 |
| 20260901003040 | 85 | 201 | 1.0 | 8.0 | 0.00 | 0.00 | 0.00 | 28 | 1008.9 |
| 20260901001604 | 86 | 189 | 0.0 | 11.0 | 0.00 | 0.00 | 0.00 | 26 | 1013.4 |
| 20260901001540 | 86 | 189 | 0.0 | 7.0 | 0.00 | 0.00 | 0.00 | 27 | 1008.9 |
| 20260901000104 | 87 | 126 | 3.0 | 11.0 | 0.00 | 0.00 | 0.00 | 25 | 1013.5 |
| 20260901000039 | 87 | 125 | 3.0 | 8.0 | 0.00 | 0.00 | 0.00 | 25 | 1008.8 |
| 20260831234602 | 88 | 171 | 2.0 | 12.0 | 0.00 | 0.00 | 0.00 | 26 | 1013.3 |
| 20260831234539 | 88 | 171 | 2.0 | 12.0 | 0.00 | 0.00 | 0.00 | 27 | 1008.8 |
| 20260831233106 | 90 | 215 | 4.0 | 12.0 | 0.00 | 0.00 | 0.00 | 24 | 1013.4 |
| 20260831233037 | 90 | 215 | 4.0 | 11.0 | 0.00 | 0.00 | 0.00 | 25 | 1008.8 |
| 20260831231600 | 90 | 194 | 2.0 | 8.0 | 0.00 | 0.00 | 0.00 | 23 | 1013.4 |
| 20260831231538 | 90 | 194 | 2.0 | 6.0 | 0.00 | 0.00 | 0.00 | 24 | 1008.9 |
| 20260831230117 | 91 | 244 | 2.0 | 8.0 | 0.00 | 0.00 | 0.00 | 19 | 1013.6 |
| 20260831230053 | 91 | 252 | 2.0 | 7.0 | 0.00 | 0.00 | 0.00 | 20 | 1009.1 |